| time (UTC) | temp F | wind direction | speed MPH | gust MPH | rain 1hr in | rain 24hr in | rain mn in | humidity % | barometer mb |
| 20260831122516 | 74 | 0.0 | 0.0 | 0.00 | 0.00 | 0.00 | 79 | 1014.8 | |
| 20260831121516 | 74 | 0.0 | 0.0 | 0.00 | 0.00 | 0.00 | 78 | 1014.6 | |
| 20260831120516 | 74 | 158 | 2.0 | 4.0 | 0.00 | 0.00 | 0.00 | 76 | 1014.5 |
| 20260831115536 | 75 | 0.0 | 3.0 | 0.00 | 0.00 | 0.00 | 75 | 1014.4 | |
| 20260831114536 | 76 | 135 | 2.0 | 3.0 | 0.00 | 0.00 | 0.00 | 75 | 1014.5 |
| 20260831113536 | 76 | 158 | 2.0 | 4.0 | 0.00 | 0.00 | 0.00 | 74 | 1014.5 |
| 20260831112516 | 76 | 135 | 2.0 | 3.0 | 0.00 | 0.00 | 0.00 | 74 | 1014.4 |
| 20260831111516 | 76 | 0.0 | 0.0 | 0.00 | 0.00 | 0.00 | 75 | 1014.3 | |
| 20260831110536 | 76 | 0.0 | 0.0 | 0.00 | 0.00 | 0.00 | 74 | 1014.2 | |
| 20260831105516 | 76 | 0.0 | 0.0 | 0.00 | 0.00 | 0.00 | 74 | 1014.1 | |
| 20260831104516 | 75 | 0.0 | 1.0 | 0.00 | 0.00 | 0.00 | 74 | 1014.1 | |
| 20260831103516 | 75 | 0.0 | 1.0 | 0.00 | 0.00 | 0.00 | 74 | 1014.0 | |
| 20260831102556 | 75 | 135 | 1.0 | 1.0 | 0.00 | 0.00 | 0.00 | 74 | 1014.0 |
| 20260831101516 | 74 | 135 | 1.0 | 2.0 | 0.00 | 0.00 | 0.00 | 74 | 1014.1 |
| 20260831100516 | 74 | 135 | 1.0 | 2.0 | 0.00 | 0.00 | 0.00 | 72 | 1014.2 |
| 20260831095516 | 75 | 0.0 | 2.0 | 0.00 | 0.00 | 0.00 | 72 | 1014.1 | |
| 20260831094516 | 75 | 0.0 | 0.0 | 0.00 | 0.00 | 0.00 | 71 | 1014.0 | |
| 20260831093516 | 76 | 0.0 | 3.0 | 0.00 | 0.00 | 0.00 | 69 | 1014.0 | |
| 20260831092515 | 76 | 0.0 | 0.0 | 0.00 | 0.00 | 0.00 | 69 | 1013.9 | |
| 20260831091516 | 76 | 0.0 | 0.0 | 0.00 | 0.00 | 0.00 | 68 | 1013.9 | |
| 20260831090515 | 76 | 0.0 | 0.0 | 0.00 | 0.00 | 0.00 | 67 | 1013.8 | |
| 20260831085515 | 76 | 0.0 | 0.0 | 0.00 | 0.00 | 0.00 | 67 | 1013.8 | |
| 20260831084515 | 76 | 0.0 | 0.0 | 0.00 | 0.00 | 0.00 | 67 | 1013.9 | |
| 20260831083515 | 76 | 0.0 | 0.0 | 0.00 | 0.00 | 0.00 | 66 | 1013.9 | |
| 20260831082516 | 77 | 0.0 | 0.0 | 0.00 | 0.00 | 0.00 | 65 | 1013.9 | |
| 20260831081535 | 78 | 0.0 | 0.0 | 0.00 | 0.00 | 0.00 | 63 | 1013.9 | |
| 20260831080535 | 79 | 0.0 | 0.0 | 0.00 | 0.00 | 0.00 | 63 | 1014.0 | |
| 20260831075515 | 79 | 135 | 1.0 | 3.0 | 0.00 | 0.00 | 0.00 | 63 | 1013.9 |
| 20260831074515 | 79 | 135 | 1.0 | 2.0 | 0.00 | 0.00 | 0.00 | 62 | 1013.9 |
| 20260831073515 | 79 | 135 | 1.0 | 2.0 | 0.00 | 0.00 | 0.00 | 62 | 1013.8 |
| 20260831072515 | 79 | 135 | 1.0 | 2.0 | 0.00 | 0.00 | 0.00 | 61 | 1013.7 |
| 20260831071517 | 79 | 135 | 1.0 | 2.0 | 0.00 | 0.00 | 0.00 | 61 | 1013.7 |
| 20260831070517 | 80 | 135 | 1.0 | 3.0 | 0.00 | 0.00 | 0.00 | 61 | 1013.7 |
| 20260831065537 | 80 | 0.0 | 2.0 | 0.00 | 0.00 | 0.00 | 60 | 1013.7 | |
| 20260831064517 | 80 | 0.0 | 2.0 | 0.00 | 0.00 | 0.00 | 59 | 1013.8 | |
| 20260831063517 | 80 | 135 | 1.0 | 2.0 | 0.00 | 0.00 | 0.00 | 59 | 1013.8 |
| 20260831062517 | 80 | 135 | 1.0 | 2.0 | 0.00 | 0.00 | 0.00 | 59 | 1013.7 |
| 20260831061517 | 80 | 0.0 | 2.0 | 0.00 | 0.00 | 0.00 | 59 | 1013.8 | |
| 20260831060517 | 80 | 0.0 | 2.0 | 0.00 | 0.00 | 0.00 | 58 | 1013.8 | |
| 20260831055517 | 80 | 0.0 | 0.0 | 0.00 | 0.00 | 0.00 | 58 | 1013.8 | |
| 20260831054517 | 81 | 0.0 | 0.0 | 0.00 | 0.00 | 0.00 | 57 | 1013.6 | |
| 20260831053517 | 81 | 0.0 | 0.0 | 0.00 | 0.00 | 0.00 | 57 | 1013.6 | |
| 20260831052517 | 81 | 0.0 | 0.0 | 0.00 | 0.00 | 0.00 | 56 | 1013.7 | |
| 20260831051517 | 82 | 0.0 | 0.0 | 0.00 | 0.00 | 0.00 | 55 | 1013.6 | |
| 20260831050517 | 83 | 0.0 | 0.0 | 0.00 | 0.00 | 0.00 | 54 | 1013.6 | |
| 20260831045515 | 83 | 135 | 1.0 | 2.0 | 0.00 | 0.00 | 0.00 | 54 | 1013.5 |
| 20260831044516 | 83 | 0.0 | 1.0 | 0.00 | 0.00 | 0.00 | 53 | 1013.5 | |
| 20260831043515 | 83 | 135 | 2.0 | 3.0 | 0.00 | 0.00 | 0.00 | 53 | 1013.5 |
| 20260831042535 | 84 | 113 | 2.0 | 3.0 | 0.00 | 0.00 | 0.00 | 52 | 1013.5 |
| 20260831041515 | 84 | 113 | 1.0 | 2.0 | 0.00 | 0.00 | 0.00 | 52 | 1013.5 |
| 20260831040515 | 84 | 113 | 1.0 | 2.0 | 0.00 | 0.00 | 0.00 | 52 | 1013.4 |
| 20260831035515 | 84 | 113 | 2.0 | 3.0 | 0.00 | 0.00 | 0.00 | 51 | 1013.4 |
| 20260831034515 | 84 | 113 | 1.0 | 2.0 | 0.00 | 0.00 | 0.00 | 51 | 1013.4 |
| 20260831033517 | 84 | 113 | 2.0 | 3.0 | 0.00 | 0.00 | 0.00 | 50 | 1013.3 |
| 20260831032517 | 85 | 135 | 1.0 | 2.0 | 0.00 | 0.00 | 0.00 | 49 | 1013.3 |
| 20260831031517 | 85 | 0.0 | 0.0 | 0.00 | 0.00 | 0.00 | 49 | 1013.2 | |
| 20260831030537 | 85 | 0.0 | 1.0 | 0.00 | 0.00 | 0.00 | 49 | 1013.1 | |
| 20260831025517 | 86 | 135 | 1.0 | 2.0 | 0.00 | 0.00 | 0.00 | 48 | 1013.0 |
| 20260831024517 | 86 | 135 | 2.0 | 3.0 | 0.00 | 0.00 | 0.00 | 48 | 1012.8 |
| 20260831023515 | 86 | 135 | 3.0 | 4.0 | 0.00 | 0.00 | 0.00 | 47 | 1012.7 |
| 20260831022517 | 87 | 135 | 2.0 | 4.0 | 0.00 | 0.00 | 0.00 | 46 | 1012.5 |
| 20260831021517 | 87 | 135 | 3.0 | 3.0 | 0.00 | 0.00 | 0.00 | 45 | 1012.4 |
| 20260831020517 | 88 | 135 | 3.0 | 4.0 | 0.00 | 0.00 | 0.00 | 44 | 1012.2 |
| 20260831015517 | 88 | 135 | 3.0 | 5.0 | 0.00 | 0.00 | 0.00 | 43 | 1012.0 |
| 20260831014517 | 89 | 135 | 3.0 | 5.0 | 0.00 | 0.00 | 0.00 | 43 | 1011.9 |
| 20260831013517 | 89 | 135 | 3.0 | 5.0 | 0.00 | 0.00 | 0.00 | 42 | 1011.8 |
| 20260831012517 | 90 | 113 | 3.0 | 5.0 | 0.00 | 0.00 | 0.00 | 41 | 1011.6 |
| 20260831011517 | 91 | 135 | 3.0 | 4.0 | 0.00 | 0.00 | 0.00 | 40 | 1011.5 |
| 20260831010517 | 92 | 135 | 3.0 | 6.0 | 0.00 | 0.00 | 0.00 | 39 | 1011.6 |
| 20260831005517 | 94 | 135 | 5.0 | 8.0 | 0.00 | 0.00 | 0.00 | 38 | 1011.5 |
| 20260831004517 | 95 | 135 | 6.0 | 9.0 | 0.00 | 0.00 | 0.00 | 37 | 1011.5 |
| 20260831003517 | 95 | 135 | 5.0 | 9.0 | 0.00 | 0.00 | 0.00 | 36 | 1011.4 |
| 20260831002516 | 96 | 135 | 5.0 | 10.0 | 0.00 | 0.00 | 0.00 | 35 | 1011.5 |
| 20260831001517 | 97 | 158 | 4.0 | 8.0 | 0.00 | 0.00 | 0.00 | 34 | 1011.5 |
| 20260831000516 | 97 | 135 | 7.0 | 14.0 | 0.00 | 0.00 | 0.00 | 34 | 1011.5 |
| 20260830235517 | 97 | 158 | 6.0 | 12.0 | 0.00 | 0.00 | 0.00 | 33 | 1011.5 |
| 20260830234516 | 98 | 158 | 4.0 | 8.0 | 0.00 | 0.00 | 0.00 | 33 | 1011.5 |
| 20260830233516 | 98 | 158 | 5.0 | 11.0 | 0.00 | 0.00 | 0.00 | 33 | 1011.5 |
| 20260830232516 | 98 | 158 | 5.0 | 9.0 | 0.00 | 0.00 | 0.00 | 33 | 1011.6 |
| 20260830231516 | 99 | 180 | 8.0 | 13.0 | 0.00 | 0.00 | 0.00 | 32 | 1011.6 |
| 20260830230557 | 99 | 135 | 10.0 | 15.0 | 0.00 | 0.00 | 0.00 | 33 | 1011.6 |
| 20260830225516 | 99 | 113 | 9.0 | 15.0 | 0.00 | 0.00 | 0.00 | 33 | 1011.7 |
| 20260830224516 | 98 | 135 | 8.0 | 16.0 | 0.00 | 0.00 | 0.00 | 34 | 1011.7 |
| 20260830223516 | 99 | 135 | 9.0 | 15.0 | 0.00 | 0.00 | 0.00 | 33 | 1011.7 |
| 20260830222516 | 99 | 158 | 8.0 | 14.0 | 0.00 | 0.00 | 0.00 | 33 | 1011.7 |
| 20260830221516 | 100 | 180 | 5.0 | 9.0 | 0.00 | 0.00 | 0.00 | 32 | 1011.7 |
| 20260830220516 | 100 | 158 | 8.0 | 21.0 | 0.00 | 0.00 | 0.00 | 32 | 1011.8 |
| 20260830215536 | 101 | 135 | 10.0 | 15.0 | 0.00 | 0.00 | 0.00 | 32 | 1011.8 |
| 20260830214516 | 100 | 158 | 7.0 | 16.0 | 0.00 | 0.00 | 0.00 | 32 | 1011.9 |
| 20260830213536 | 100 | 158 | 9.0 | 17.0 | 0.00 | 0.00 | 0.00 | 32 | 1011.9 |
| 20260830212516 | 100 | 135 | 7.0 | 12.0 | 0.00 | 0.00 | 0.00 | 32 | 1012.0 |
| 20260830211516 | 100 | 158 | 8.0 | 13.0 | 0.00 | 0.00 | 0.00 | 32 | 1012.2 |
| 20260830210516 | 100 | 158 | 5.0 | 12.0 | 0.00 | 0.00 | 0.00 | 32 | 1012.1 |
| 20260830205516 | 101 | 135 | 9.0 | 13.0 | 0.00 | 0.00 | 0.00 | 32 | 1012.4 |
| 20260830204516 | 101 | 203 | 5.0 | 11.0 | 0.00 | 0.00 | 0.00 | 32 | 1012.5 |
| 20260830203516 | 102 | 180 | 5.0 | 10.0 | 0.00 | 0.00 | 0.00 | 32 | 1012.6 |
| 20260830202536 | 101 | 203 | 5.0 | 9.0 | 0.00 | 0.00 | 0.00 | 33 | 1012.8 |
| 20260830201516 | 101 | 180 | 8.0 | 16.0 | 0.00 | 0.00 | 0.00 | 34 | 1012.9 |
| 20260830200516 | 100 | 180 | 9.0 | 15.0 | 0.00 | 0.00 | 0.00 | 34 | 1013.0 |
| 20260830195515 | 101 | 203 | 6.0 | 13.0 | 0.00 | 0.00 | 0.00 | 34 | 1013.2 |
| 20260830194515 | 101 | 135 | 4.0 | 12.0 | 0.00 | 0.00 | 0.00 | 35 | 1013.4 |
| 20260830193515 | 101 | 180 | 8.0 | 12.0 | 0.00 | 0.00 | 0.00 | 36 | 1013.5 |
| 20260830192536 | 101 | 180 | 7.0 | 13.0 | 0.00 | 0.00 | 0.00 | 36 | 1013.6 |
| 20260830191515 | 100 | 135 | 8.0 | 15.0 | 0.00 | 0.00 | 0.00 | 38 | 1013.6 |
| 20260830190515 | 99 | 180 | 9.0 | 17.0 | 0.00 | 0.00 | 0.00 | 38 | 1013.9 |
| 20260830185516 | 100 | 180 | 5.0 | 11.0 | 0.00 | 0.00 | 0.00 | 38 | 1013.9 |
| 20260830184515 | 99 | 180 | 8.0 | 18.0 | 0.00 | 0.00 | 0.00 | 39 | 1013.9 |
| 20260830183515 | 99 | 180 | 6.0 | 11.0 | 0.00 | 0.00 | 0.00 | 41 | 1014.0 |
| 20260830182515 | 99 | 203 | 6.0 | 12.0 | 0.00 | 0.00 | 0.00 | 41 | 1014.2 |
| 20260830181515 | 98 | 158 | 4.0 | 8.0 | 0.00 | 0.00 | 0.00 | 40 | 1014.2 |
| 20260830180515 | 97 | 180 | 6.0 | 13.0 | 0.00 | 0.00 | 0.00 | 39 | 1014.5 |
| 20260830175537 | 98 | 203 | 4.0 | 11.0 | 0.00 | 0.00 | 0.00 | 39 | 1014.8 |
| 20260830174517 | 99 | 203 | 7.0 | 14.0 | 0.00 | 0.00 | 0.00 | 39 | 1014.9 |
| 20260830173517 | 99 | 203 | 4.0 | 9.0 | 0.00 | 0.00 | 0.00 | 39 | 1015.0 |
| 20260830172517 | 98 | 180 | 6.0 | 12.0 | 0.00 | 0.00 | 0.00 | 40 | 1015.1 |
| 20260830171535 | 98 | 180 | 6.0 | 17.0 | 0.00 | 0.00 | 0.00 | 41 | 1015.3 |
| 20260830170517 | 98 | 180 | 7.0 | 12.0 | 0.00 | 0.00 | 0.00 | 41 | 1015.4 |
| 20260830165517 | 98 | 203 | 4.0 | 11.0 | 0.00 | 0.00 | 0.00 | 41 | 1015.5 |
| 20260830164517 | 98 | 225 | 4.0 | 9.0 | 0.00 | 0.00 | 0.00 | 44 | 1015.7 |
| 20260830163517 | 97 | 180 | 6.0 | 12.0 | 0.00 | 0.00 | 0.00 | 43 | 1015.8 |
| 20260830162517 | 96 | 203 | 5.0 | 12.0 | 0.00 | 0.00 | 0.00 | 45 | 1015.8 |
| 20260830161517 | 96 | 225 | 4.0 | 12.0 | 0.00 | 0.00 | 0.00 | 45 | 1015.9 |
| 20260830160517 | 96 | 203 | 4.0 | 9.0 | 0.00 | 0.00 | 0.00 | 48 | 1015.8 |
| 20260830155557 | 95 | 203 | 3.0 | 5.0 | 0.00 | 0.00 | 0.00 | 50 | 1016.0 |
| 20260830154517 | 94 | 203 | 5.0 | 10.0 | 0.00 | 0.00 | 0.00 | 51 | 1015.9 |
| 20260830153517 | 94 | 203 | 3.0 | 6.0 | 0.00 | 0.00 | 0.00 | 52 | 1015.9 |
| 20260830152517 | 93 | 203 | 2.0 | 6.0 | 0.00 | 0.00 | 0.00 | 53 | 1015.8 |
| 20260830151517 | 93 | 225 | 3.0 | 5.0 | 0.00 | 0.00 | 0.00 | 54 | 1015.9 |
| 20260830150517 | 92 | 225 | 2.0 | 4.0 | 0.00 | 0.00 | 0.00 | 55 | 1016.0 |
| 20260830145516 | 91 | 203 | 3.0 | 7.0 | 0.00 | 0.00 | 0.00 | 56 | 1015.9 |
| 20260830144517 | 90 | 203 | 3.0 | 7.0 | 0.00 | 0.00 | 0.00 | 58 | 1016.0 |
| 20260830143517 | 89 | 225 | 3.0 | 7.0 | 0.00 | 0.00 | 0.00 | 58 | 1016.0 |
| 20260830142517 | 88 | 225 | 2.0 | 4.0 | 0.00 | 0.00 | 0.00 | 60 | 1016.0 |
| 20260830141516 | 87 | 203 | 4.0 | 7.0 | 0.00 | 0.00 | 0.00 | 62 | 1015.9 |
| 20260830140517 | 85 | 158 | 2.0 | 5.0 | 0.00 | 0.00 | 0.00 | 64 | 1015.9 |
| 20260830135517 | 84 | 158 | 1.0 | 4.0 | 0.00 | 0.00 | 0.00 | 65 | 1016.0 |
| 20260830134516 | 83 | 158 | 1.0 | 4.0 | 0.00 | 0.00 | 0.00 | 66 | 1016.0 |
| 20260830133516 | 82 | 135 | 1.0 | 3.0 | 0.00 | 0.00 | 0.00 | 68 | 1015.8 |
| 20260830132516 | 81 | 113 | 1.0 | 3.0 | 0.00 | 0.00 | 0.00 | 69 | 1015.8 |
| 20260830131516 | 80 | 135 | 1.0 | 3.0 | 0.00 | 0.00 | 0.00 | 70 | 1015.7 |
| 20260830130516 | 79 | 135 | 1.0 | 2.0 | 0.00 | 0.00 | 0.00 | 72 | 1015.5 |
| 20260830125516 | 78 | 158 | 3.0 | 5.0 | 0.00 | 0.00 | 0.00 | 73 | 1015.4 |
| 20260830124516 | 77 | 135 | 3.0 | 7.0 | 0.00 | 0.00 | 0.00 | 74 | 1015.2 |
| 20260830123516 | 76 | 135 | 2.0 | 4.0 | 0.00 | 0.00 | 0.00 | 74 | 1015.1 |